1520870400.06,22508,7.63,72094.0,-3.45,-4.29,-4.29,0,*5F
1520870401.26,22509,7.63,72088.3,-3.45,-4.29,-4.29,0,*5E
1520870402.48,22510,7.63,72098.0,-3.43,-4.25,-4.33,0,*57
1520870403.7,22511,7.63,72100.3,-3.43,-4.25,-4.25,0,*51
1520870404.93,22512,7.63,72102.8,-3.43,-4.25,-4.25,0,*52
1520870406.16,22513,7.63,72100.5,-3.43,-4.25,-4.25,0,*53
1520870407.35,22514,7.63,72098.5,-3.45,-4.29,-4.29,0,*52
1520870408.55,22515,7.63,72094.8,-3.45,-4.29,-4.29,0,*53
1520870409.75,22516,7.63,72104.0,-3.45,-4.29,-4.25,0,*5C
1520870410.94,22517,7.63,72102.5,-3.45,-4.29,-4.29,0,*51
1520870412.14,22518,7.63,72106.3,-3.45,-4.29,-4.29,0,*5E
1520870413.34,22519,7.63,72108.0,-3.45,-4.29,-4.37,0,*50
1520870414.56,22520,7.56,72104.5,-3.43,-4.21,-4.33,0,*50
1520870415.79,22521,7.63,72104.3,-3.43,-4.33,-4.25,0,*55
1520870417.01,22522,7.56,72104.3,-3.43,-4.25,-4.25,0,*51
1520870418.24,22523,7.63,72102.0,-3.43,-4.25,-4.25,0,*50
1520870419.46,22524,7.63,72102.8,-3.43,-4.25,-4.25,0,*57
1520870420.66,22525,7.56,72098.0,-3.45,-4.29,-4.29,0,*50
1520870421.89,22526,7.63,72098.0,-3.43,-4.25,-4.25,0,*55
1520870423.09,22527,7.63,72100.0,-3.45,-4.25,-4.25,0,*52
1520870424.28,22528,7.63,72094.8,-3.45,-4.29,-4.37,0,*52
1520870425.48,22529,7.63,72094.5,-3.45,-4.25,-4.25,0,*5C
1520870426.71,22530,7.63,72096.0,-3.43,-4.25,-4.25,0,*52
1520870427.94,22531,7.63,72096.0,-3.43,-4.25,-4.25,0,*53
1520870429.16,22532,7.63,72098.3,-3.43,-4.25,-4.25,0,*50
1520870430.39,22533,7.63,72096.3,-3.43,-4.25,-4.29,0,*5D
1520870431.61,22534,7.63,72096.0,-3.43,-4.25,-4.25,0,*56
1520870432.84,22535,7.63,72096.5,-3.43,-4.25,-4.25,0,*57
1520870434.03,22536,7.63,72098.8,-3.45,-4.37,-4.29,0,*5D
1520870435.26,22537,7.63,72098.5,-3.43,-4.25,-4.25,0,*55
1520870436.49,22538,7.63,72094.8,-3.43,-4.21,-4.25,0,*5E
1520870437.72,22539,7.56,72094.3,-3.43,-4.21,-4.25,0,*5F
1520870438.95,22540,7.56,72094.3,-3.43,-4.21,-4.25,0,*51
1520870440.17,22541,7.56,72092.3,-3.43,-4.21,-4.33,0,*57
1520870441.4,22542,7.63,72092.3,-3.43,-4.21,-4.25,0,*53
1520870442.63,22543,7.63,72094.5,-3.43,-4.21,-4.25,0,*52
1520870443.86,22544,7.63,72092.3,-3.43,-4.21,-4.33,0,*52
1520870445.09,22545,7.63,72098.0,-3.43,-4.21,-4.25,0,*54
1520870446.32,22546,7.63,72096.8,-3.43,-4.21,-4.25,0,*57
1520870447.54,22547,7.63,72096.3,-3.43,-4.21,-4.25,0,*56
1520870448.74,22548,7.63,72092.5,-3.39,-4.17,-4.21,0,*55
1520870449.97,22549,7.56,72090.0,-3.43,-4.21,-4.25,0,*58
1520870451.17,22550,7.63,72088.3,-3.39,-4.17,-4.21,0,*5C
1520870452.4,22551,7.63,72086.8,-3.43,-4.25,-4.25,0,*55
1520870453.63,22552,7.63,72088.5,-3.43,-4.25,-4.25,0,*56
1520870454.85,22553,7.63,72086.8,-3.43,-4.25,-4.25,0,*57
1520870456.08,22554,7.63,72088.0,-3.43,-4.25,-4.21,0,*54
1520870457.31,22555,7.63,72090.0,-3.43,-4.25,-4.21,0,*55
1520870458.54,22556,7.63,72086.5,-3.43,-4.25,-4.21,0,*56
1520870459.77,22557,7.63,72090.5,-3.43,-4.25,-4.21,0,*57
1520870461.0,22558,7.63,72094.3,-3.43,-4.25,-4.21,0,*58
1520870462.23,22559,7.63,72094.0,-3.43,-4.25,-4.21,0,*59
1520870463.44,22560,7.56,72094.5,-3.39,-4.21,-4.21,0,*5A
1520870464.64,22561,7.63,72096.0,-3.39,-4.21,-4.21,0,*5B
1520870465.87,22562,7.63,72096.8,-3.43,-4.25,-4.25,0,*55
1520870467.1,22563,7.56,72098.5,-3.43,-4.21,-4.25,0,*50
1520870468.33,22564,7.56,72108.5,-3.43,-4.21,-4.25,0,*57
1520870469.56,22565,7.63,72098.8,-3.43,-4.21,-4.25,0,*56
1520870470.79,22566,7.63,72104.0,-3.43,-4.21,-4.21,0,*51
1520870472.02,22567,7.63,72096.0,-3.43,-4.25,-4.21,0,*54
1520870473.25,22568,7.63,72100.3,-3.43,-4.25,-4.21,0,*5B
1520870474.48,22569,7.63,72104.0,-3.43,-4.25,-4.21,0,*5A
1520870475.68,22570,7.63,72108.0,-3.39,-4.21,-4.17,0,*5E
1520870476.88,22571,7.63,72114.5,-3.39,-4.21,-4.17,0,*5F
1520870478.07,22572,7.63,72106.0,-3.39,-4.21,-4.17,0,*5C
1520870479.27,22573,7.63,72098.3,-3.39,-4.21,-4.17,0,*5D
1520870480.47,22574,7.63,72094.8,-3.39,-4.21,-4.17,0,*5A
1520870481.66,22575,7.63,72092.3,-3.39,-4.13,-4.17,0,*5A
1520870482.88,22576,7.56,72082.0,-3.37,-4.17,-4.17,0,*53
1520870484.08,22577,7.56,72094.0,-3.39,-4.17,-4.13,0,*58
1520870485.27,22578,7.56,72092.3,-3.39,-4.17,-4.17,0,*53
1520870486.46,22579,7.56,72082.5,-3.39,-4.17,-4.17,0,*52
1520870487.65,22580,7.63,72086.0,-3.39,-4.17,-4.17,0,*54
1520870488.85,22581,7.63,72084.8,-3.39,-4.21,-4.13,0,*54
1520870490.05,22582,7.56,72092.5,-3.39,-4.21,-4.17,0,*53
1520870491.24,22583,7.63,72094.3,-3.39,-4.17,-4.17,0,*57
1520870492.46,22584,7.63,72092.5,-3.37,-4.17,-4.17,0,*5E
1520870493.68,22585,7.63,72088.0,-3.37,-4.17,-4.17,0,*5F
1520870494.9,22586,7.63,72088.8,-3.37,-4.13,-4.17,0,*58
1520870496.09,22587,7.56,72092.0,-3.39,-4.17,-4.17,0,*53
1520870497.31,22588,7.56,72090.8,-3.37,-4.17,-4.17,0,*52
1520870498.54,22589,7.63,72092.8,-3.37,-4.17,-4.13,0,*57
1520870499.76,22590,7.56,72094.5,-3.37,-4.17,-4.13,0,*5F
1520870500.95,22591,7.63,72090.8,-3.39,-4.13,-4.17,0,*50
1520870502.18,22592,7.63,72086.8,-3.37,-4.17,-4.13,0,*5D
1520870503.37,22593,7.56,72086.8,-3.39,-4.17,-4.17,0,*56
1520870504.6,22594,7.63,72088.3,-3.37,-4.17,-4.13,0,*5B
1520870505.79,22595,7.56,72088.5,-3.39,-4.13,-4.17,0,*54
1520870507.01,22596,7.56,72090.5,-3.37,-4.17,-4.17,0,*5D
1520870508.23,22597,7.56,72098.3,-3.37,-4.17,-4.17,0,*5C
1520870509.42,22598,7.63,72102.8,-3.39,-4.17,-4.17,0,*5D
1520870510.64,22599,7.63,72096.8,-3.37,-4.17,-4.17,0,*52
1520870511.86,22600,7.63,72100.8,-3.37,-4.17,-4.17,0,*51
1520870513.05,22601,7.56,72094.5,-3.39,-4.17,-4.17,0,*5E
1520870514.27,22602,7.63,72094.3,-3.37,-4.17,-4.17,0,*53
1520870515.49,22603,7.56,72098.8,-3.37,-4.17,-4.17,0,*52
1520870516.68,22604,7.56,72096.3,-3.39,-4.17,-4.13,0,*5F
1520870517.9,22605,7.63,72102.8,-3.37,-4.17,-4.17,0,*54
1520870519.12,22606,7.56,72096.0,-3.37,-4.17,-4.17,0,*57
1520870520.34,22607,7.56,72098.5,-3.37,-4.17,-4.17,0,*56
1520870521.56,22608,7.56,72092.0,-3.37,-4.17,-4.17,0,*59
1520870522.78,22609,7.63,72100.8,-3.37,-4.17,-4.17,0,*58
1520870523.97,22610,7.63,72104.8,-3.39,-4.17,-4.17,0,*5E
1520870525.16,22611,7.63,72102.0,-3.39,-4.17,-4.17,0,*5F
1520870526.38,22612,7.63,72106.0,-3.37,-4.17,-4.17,0,*52
1520870527.61,22613,7.56,72100.0,-3.37,-4.17,-4.13,0,*57
1520870528.81,22614,7.63,72098.0,-3.35,-4.13,-4.13,0,*56
1520870530.03,22615,7.63,72096.0,-3.37,-4.17,-4.17,0,*55
1520870531.25,22616,7.63,72098.0,-3.37,-4.17,-4.17,0,*56
1520870532.47,22617,7.63,72098.8,-3.37,-4.17,-4.17,0,*57
1520870533.7,22618,7.56,72090.0,-3.37,-4.17,-4.13,0,*5C
1520870534.92,22619,7.63,72090.3,-3.37,-4.17,-4.17,0,*59
1520870536.12,22620,7.56,72088.0,-3.35,-4.13,-4.13,0,*51
1520870537.32,22621,7.56,72084.5,-3.35,-4.17,-4.09,0,*5F
1520870538.52,22622,7.56,72092.0,-3.35,-4.17,-4.13,0,*57
1520870539.73,22623,7.63,72096.8,-3.35,-4.17,-4.13,0,*56
1520870540.93,22624,7.56,72092.5,-3.35,-4.17,-4.13,0,*51
1520870542.13,22625,7.56,72088.8,-3.35,-4.17,-4.13,0,*50
1520870543.33,22626,7.63,72090.0,-3.35,-4.17,-4.13,0,*53
1520870544.53,22627,7.63,72092.0,-3.35,-4.17,-4.13,0,*52
1520870545.74,22628,7.63,72090.3,-3.35,-4.17,-4.13,0,*5D
1520870546.94,22629,7.63,72092.3,-3.35,-4.13,-4.13,0,*58
1520870548.16,22630,7.63,72094.0,-3.37,-4.17,-4.17,0,*52
1520870549.38,22631,7.63,72094.8,-3.37,-4.17,-4.17,0,*53
1520870550.6,22632,7.63,72094.5,-3.37,-4.17,-4.17,0,*50
1520870551.82,22633,7.56,72092.3,-3.37,-4.17,-4.17,0,*51
1520870553.02,22634,7.56,72090.3,-3.35,-4.13,-4.13,0,*54
1520870554.22,22635,7.63,72090.0,-3.35,-4.13,-4.13,0,*55
1520870555.43,22636,7.56,72092.3,-3.35,-4.09,-4.13,0,*5D
1520870556.63,22637,7.56,72090.5,-3.35,-4.13,-4.13,0,*57
1520870557.83,22638,7.56,72090.8,-3.35,-4.13,-4.13,0,*58
1520870559.04,22639,7.63,72096.5,-3.35,-4.13,-4.13,0,*59
1520870560.24,22640,7.56,72088.3,-3.35,-4.13,-4.13,0,*57
1520870561.44,22641,7.63,72094.0,-3.35,-4.13,-4.13,0,*56
1520870562.65,22642,7.63,72092.3,-3.35,-4.09,-4.13,0,*5E
1520870563.85,22643,7.63,72090.3,-3.35,-4.09,-4.13,0,*5F
1520870565.05,22644,7.63,72092.0,-3.35,-4.13,-4.13,0,*53
1520870566.25,22645,7.63,72090.8,-3.35,-4.13,-4.09,0,*59
1520870567.45,22646,7.56,72090.8,-3.35,-4.13,-4.13,0,*51
1520870568.67,22647,7.56,72088.5,-3.37,-4.17,-4.17,0,*52
1520870569.89,22648,7.63,72094.3,-3.37,-4.17,-4.17,0,*5D
1520870571.12,22649,7.56,72092.8,-3.37,-4.21,-4.17,0,*59
1520870572.35,22650,7.63,72092.0,-3.37,-4.21,-4.17,0,*51
1520870573.58,22651,7.63,72092.5,-3.37,-4.21,-4.17,0,*50
1520870574.78,22652,7.56,72092.5,-3.35,-4.17,-4.13,0,*50
1520870576.01,22653,7.63,72092.3,-3.33,-4.17,-4.13,0,*57
1520870577.21,22654,7.56,72090.5,-3.35,-4.17,-4.13,0,*56
1520870578.41,22655,7.63,72094.5,-3.35,-4.13,-4.13,0,*53
1520870579.61,22656,7.63,72094.3,-3.35,-4.13,-4.17,0,*54
1520870580.81,22657,7.63,72094.0,-3.35,-4.13,-4.13,0,*51
1520870582.01,22658,7.63,72094.3,-3.35,-4.13,-4.09,0,*55
1520870583.21,22659,7.56,72094.3,-3.35,-4.13,-4.13,0,*5F
1520870584.42,22660,7.63,72096.3,-3.35,-4.13,-4.13,0,*55
1520870585.62,22661,7.63,72096.8,-3.35,-4.13,-4.13,0,*54
1520870586.85,22662,7.63,72098.0,-3.33,-4.13,-4.13,0,*51
1520870588.05,22663,7.63,72096.3,-3.35,-4.13,-4.13,0,*56
1520870589.28,22664,7.63,72098.5,-3.33,-4.13,-4.13,0,*57
1520870590.48,22665,7.56,72096.0,-3.35,-4.13,-4.13,0,*50
1520870591.68,22666,7.63,72104.0,-3.35,-4.13,-4.13,0,*53
1520870592.89,22667,7.56,72104.5,-3.35,-4.17,-4.13,0,*56
1520870594.09,22668,7.56,72100.0,-3.35,-4.17,-4.13,0,*59
1520870595.31,22669,7.56,72096.3,-3.33,-4.17,-4.13,0,*5E
1520870596.52,22670,7.56,72092.0,-3.35,-4.17,-4.13,0,*50
1520870597.72,22671,7.63,72098.0,-3.35,-4.17,-4.13,0,*51
1520870598.93,22672,7.56,72088.8,-3.35,-4.25,-4.13,0,*53
1520870600.15,22673,7.63,72090.5,-3.33,-4.17,-4.13,0,*55
1520870601.36,22674,7.63,72090.3,-3.35,-4.13,-4.13,0,*50
1520870602.56,22675,7.56,72082.0,-3.35,-4.13,-4.13,0,*51
1520870603.76,22676,7.56,72086.5,-3.35,-4.13,-4.13,0,*52
1520870604.96,22677,7.56,72088.8,-3.35,-4.13,-4.13,0,*53
1520870606.17,22678,7.56,72084.3,-3.35,-4.13,-4.13,0,*5C
1520870607.37,22679,7.56,72082.0,-3.35,-4.13,-4.13,0,*5D
1520870608.57,22680,7.56,72084.8,-3.35,-4.13,-4.13,0,*5B
1520870609.77,22681,7.63,72088.8,-3.35,-4.17,-4.09,0,*55
1520870610.98,22682,7.56,72088.0,-3.35,-4.13,-4.13,0,*59
1520870612.18,22683,7.56,72084.3,-3.35,-4.13,-4.13,0,*58
1520870613.38,22684,7.56,72082.3,-3.35,-4.17,-4.13,0,*5B
1520870614.61,22685,7.56,72082.3,-3.33,-4.17,-4.13,0,*5C
1520870615.83,22686,7.63,72080.3,-3.33,-4.17,-4.13,0,*5F
1520870617.06,22687,7.56,72066.3,-3.33,-4.17,-4.13,0,*5E
1520870618.26,22688,7.56,72062.5,-3.35,-4.13,-4.13,0,*53
1520870619.47,22689,7.63,72056.8,-3.35,-4.13,-4.13,0,*52
1520870620.69,22690,7.56,72058.0,-3.33,-4.13,-4.13,0,*5C
1520870621.9,22691,7.63,72052.3,-3.35,-4.13,-4.13,0,*5B
1520870623.12,22692,7.56,72058.3,-3.33,-4.13,-4.13,0,*5E
1520870624.35,22693,7.56,72060.0,-3.33,-4.13,-4.13,0,*5F
1520870625.55,22694,7.56,72060.5,-3.35,-4.13,-4.13,0,*5E
1520870626.76,22695,7.56,72068.5,-3.35,-4.13,-4.13,0,*5F
1520870627.98,22696,7.56,72072.8,-3.33,-4.13,-4.13,0,*5A
1520870629.21,22697,7.63,72082.3,-3.33,-4.13,-4.13,0,*5B
1520870630.44,22698,7.56,72080.0,-3.33,-4.13,-4.13,0,*54
1520870631.67,22699,7.56,72078.8,-3.33,-4.13,-4.13,0,*55
1520870632.87,22700,7.63,72078.5,-3.35,-4.13,-4.13,0,*52
1520870634.1,22701,7.56,72078.3,-3.33,-4.13,-4.13,0,*55
1520870635.3,22702,7.63,72078.3,-3.35,-4.13,-4.13,0,*50
1520870636.5,22703,7.56,72066.5,-3.35,-4.17,-4.13,0,*55
1520870637.73,22704,7.63,72068.5,-3.33,-4.17,-4.13,0,*54
1520870638.95,22705,7.56,72068.3,-3.33,-4.17,-4.13,0,*55
1520870640.18,22706,7.56,72070.8,-3.33,-4.17,-4.09,0,*5D
1520870641.4,22707,7.56,72078.3,-3.33,-4.17,-4.13,0,*57
1520870642.63,22708,7.56,72070.0,-3.33,-4.17,-4.13,0,*58
1520870643.86,22709,7.56,72074.0,-3.33,-4.17,-4.13,0,*59
1520870645.06,22710,7.63,72078.5,-3.35,-4.17,-4.13,0,*57
1520870646.29,22711,7.56,72080.5,-3.33,-4.17,-4.13,0,*50
1520870647.51,22712,7.56,72070.8,-3.33,-4.17,-4.13,0,*53
1520870648.74,22713,7.56,72068.5,-3.33,-4.25,-4.13,0,*53
1520870649.95,22714,7.56,72072.3,-3.35,-4.17,-4.13,0,*53
1520870651.15,22715,7.56,72070.8,-3.35,-4.17,-4.13,0,*52
1520870652.38,22716,7.56,72068.8,-3.33,-4.25,-4.13,0,*56
1520870653.58,22717,7.56,72066.3,-3.35,-4.17,-4.13,0,*50
1520870654.81,22718,7.63,72068.3,-3.33,-4.17,-4.13,0,*59
1520870656.03,22719,7.56,72074.0,-3.33,-4.17,-4.13,0,*58
1520870657.26,22720,7.56,72078.0,-3.33,-4.17,-4.13,0,*52
1520870658.48,22721,7.63,72078.3,-3.33,-4.17,-4.17,0,*57
1520870659.7,22722,7.56,72076.0,-3.33,-4.17,-4.17,0,*54
1520870660.93,22723,7.56,72074.0,-3.33,-4.17,-4.25,0,*54
1520870662.16,22724,7.56,72078.5,-3.33,-4.17,-4.13,0,*56
1520870663.38,22725,7.56,72072.5,-3.33,-4.13,-4.13,0,*53
1520870664.59,22726,7.56,72072.3,-3.35,-4.17,-4.13,0,*52
1520870665.81,22727,7.56,72074.8,-3.33,-4.17,-4.13,0,*55
1520870667.04,22728,7.56,72076.5,-3.33,-4.17,-4.13,0,*5A
1520870668.27,22729,7.56,72084.3,-3.33,-4.17,-4.13,0,*5B
1520870669.49,22730,7.56,72082.3,-3.33,-4.17,-4.13,0,*53
1520870670.71,22731,7.56,72088.5,-3.33,-4.17,-4.17,0,*56
1520870671.93,22732,7.63,72088.5,-3.33,-4.17,-4.17,0,*55
1520870673.15,22733,7.56,72080.0,-3.33,-4.17,-4.17,0,*54
1520870674.35,22734,7.56,72080.8,-3.35,-4.17,-4.17,0,*55
1520870675.58,22735,7.56,72080.8,-3.33,-4.17,-4.13,0,*56
1520870676.8,22736,7.56,72082.8,-3.33,-4.17,-4.13,0,*55
1520870678.03,22737,7.63,72086.0,-3.33,-4.17,-4.13,0,*54
1520870679.26,22738,7.56,72082.0,-3.33,-4.17,-4.13,0,*5B
1520870680.48,22739,7.56,72076.0,-3.33,-4.17,-4.13,0,*5A
1520870681.71,22740,7.56,72078.3,-3.33,-4.17,-4.13,0,*54
1520870682.93,22741,7.63,72086.8,-3.33,-4.17,-4.17,0,*51
1520870684.15,22742,7.56,72086.5,-3.33,-4.17,-4.17,0,*52
1520870685.37,22743,7.56,72086.3,-3.33,-4.17,-4.17,0,*53
1520870686.59,22744,7.56,72078.3,-3.33,-4.17,-4.17,0,*54
1520870687.82,22745,7.56,72082.3,-3.33,-4.17,-4.25,0,*54
1520870689.04,22746,7.56,72082.3,-3.33,-4.17,-4.17,0,*56
1520870690.26,22747,7.63,72082.5,-3.33,-4.17,-4.09,0,*58
1520870691.49,22748,7.56,72082.8,-3.33,-4.17,-4.13,0,*5C
1520870692.72,22749,7.56,72080.3,-3.33,-4.17,-4.13,0,*5D
1520870693.94,22750,7.56,72082.8,-3.29,-4.13,-4.09,0,*51
1520870695.16,22751,7.56,72076.8,-3.29,-4.13,-4.09,0,*50
1520870696.38,22752,7.56,72074.3,-3.29,-4.13,-4.09,0,*53
1520870697.6,22753,7.56,72072.8,-3.33,-4.17,-4.13,0,*56
1520870698.83,22754,7.63,72068.3,-3.29,-4.13,-4.09,0,*55
1520870700.05,22755,7.56,72068.0,-3.29,-4.13,-4.09,0,*54
1520870701.27,22756,7.56,72070.8,-3.29,-4.13,-4.09,0,*57
1520870702.49,22757,7.56,72072.3,-3.29,-4.13,-4.09,0,*56
1520870703.71,22758,7.56,72070.8,-3.29,-4.13,-4.09,0,*59
1520870704.9,22759,7.63,72068.8,-3.27,-4.13,-4.09,0,*56
1520870706.12,22760,7.63,72074.5,-3.29,-4.13,-4.09,0,*52
1520870707.34,22761,7.56,72068.8,-3.29,-4.13,-4.09,0,*53
1520870708.56,22762,7.56,72068.3,-3.29,-4.13,-4.09,0,*50
1520870709.79,22763,7.56,72074.8,-3.29,-4.13,-4.13,0,*5A
1520870711.01,22764,7.56,72066.0,-3.29,-4.13,-4.13,0,*5D
1520870712.23,22765,7.56,72072.5,-3.33,-4.17,-4.17,0,*57
1520870713.45,22766,7.56,72080.3,-3.33,-4.17,-4.17,0,*54
1520870714.67,22767,7.63,72080.5,-3.33,-4.17,-4.17,0,*55
1520870715.89,22768,7.56,72072.5,-3.29,-4.13,-4.13,0,*51
1520870717.12,22769,7.56,72076.8,-3.29,-4.13,-4.13,0,*50
1520870718.34,22770,7.56,72076.3,-3.29,-4.13,-4.13,0,*58
1520870719.56,22771,7.56,72074.5,-3.29,-4.13,-4.13,0,*59
1520870720.79,22772,7.56,72068.8,-3.33,-4.17,-4.13,0,*55
1520870722.01,22773,7.56,72078.0,-3.33,-4.17,-4.17,0,*50
1520870723.24,22774,7.56,72080.5,-3.29,-4.21,-4.13,0,*5D
1520870724.46,22775,7.63,72078.3,-3.29,-4.13,-4.13,0,*5D
1520870725.69,22776,7.56,72066.5,-3.29,-4.13,-4.13,0,*5E
1520870726.91,22777,7.56,72070.5,-3.29,-4.13,-4.13,0,*5F
1520870728.13,22778,7.56,72072.0,-3.29,-4.13,-4.13,0,*50
1520870729.36,22779,7.56,72078.0,-3.29,-4.13,-4.13,0,*51
1520870730.58,22780,7.56,72076.5,-3.29,-4.13,-4.13,0,*57
1520870731.8,22781,7.63,72084.3,-3.29,-4.13,-4.13,0,*56
1520870733.0,22782,7.56,72078.5,-3.27,-4.13,-4.13,0,*5B
1520870734.23,22783,7.56,72074.8,-3.29,-4.21,-4.13,0,*55
1520870735.45,22784,7.56,72074.0,-3.29,-4.13,-4.13,0,*53
1520870736.68,22785,7.56,72078.0,-3.29,-4.09,-4.13,0,*59
1520870737.9,22786,7.56,72076.0,-3.29,-4.09,-4.13,0,*5A
1520870739.1,22787,7.56,72072.8,-3.27,-4.09,-4.13,0,*55
1520870740.32,22788,7.56,72076.5,-3.29,-4.09,-4.13,0,*54
1520870741.54,22789,7.63,72082.0,-3.29,-4.09,-4.13,0,*55
1520870742.76,22790,7.56,72076.0,-3.29,-4.09,-4.13,0,*5D
1520870743.99,22791,7.56,72080.3,-3.29,-4.09,-4.09,0,*57
1520870745.18,22792,7.56,72082.8,-3.27,-4.09,-4.09,0,*5A
1520870746.37,22793,7.56,72086.0,-3.27,-4.09,-4.09,0,*5B
1520870747.59,22794,7.63,72084.0,-3.29,-4.13,-4.09,0,*59
1520870748.81,22795,7.56,72080.0,-3.29,-4.13,-4.09,0,*58
1520870750.03,22796,7.56,72080.5,-3.29,-4.13,-4.09,0,*5B
1520870751.25,22797,7.56,72084.3,-3.29,-4.13,-4.09,0,*5A
1520870752.47,22798,7.56,72084.5,-3.29,-4.13,-4.09,0,*55
1520870753.7,22799,7.56,72084.0,-3.29,-4.13,-4.09,0,*54
1520870754.92,22800,7.56,72094.8,-3.29,-4.13,-4.13,0,*50
1520870756.15,22801,7.56,72096.3,-3.29,-4.21,-4.13,0,*50
1520870757.37,22802,7.63,72098.8,-3.29,-4.13,-4.13,0,*52
1520870758.6,22803,7.56,72100.3,-3.29,-4.13,-4.13,0,*53
1520870759.82,22804,7.56,72096.5,-3.29,-4.13,-4.13,0,*54
1520870761.01,22805,7.56,72092.5,-3.27,-4.13,-4.09,0,*50
1520870762.23,22806,7.63,72082.3,-3.29,-4.13,-4.09,0,*5D
1520870763.45,22807,7.56,72080.0,-3.29,-4.13,-4.09,0,*5C
1520870764.65,22808,7.56,72078.5,-3.27,-4.13,-4.09,0,*5D
1520870765.87,22809,7.63,72092.5,-3.29,-4.13,-4.09,0,*52
1520870767.09,22810,7.63,72094.0,-3.29,-4.13,-4.09,0,*5A
1520870768.31,22811,7.56,72084.3,-3.29,-4.13,-4.13,0,*50
1520870769.51,22812,7.56,72090.8,-3.27,-4.13,-4.13,0,*5D
1520870770.73,22813,7.56,72090.0,-3.29,-4.13,-4.13,0,*52
1520870771.95,22814,7.56,72084.5,-3.29,-4.13,-4.13,0,*55
1520870773.18,22815,7.56,72084.3,-3.29,-4.13,-4.13,0,*54
1520870774.4,22816,7.56,72090.5,-3.29,-4.13,-4.13,0,*57
1520870775.62,22817,7.56,72090.8,-3.29,-4.13,-4.13,0,*56
1520870776.85,22818,7.56,72084.8,-3.29,-4.21,-4.13,0,*58
1520870778.08,22819,7.56,72100.0,-3.29,-4.13,-4.13,0,*58
1520870779.27,22820,7.56,72092.8,-3.27,-4.13,-4.13,0,*5C
1520870780.5,22821,7.56,72098.8,-3.29,-4.13,-4.13,0,*53
1520870781.72,22822,7.56,72098.0,-3.29,-4.13,-4.13,0,*50
1520870782.92,22823,7.56,72092.0,-3.27,-4.13,-4.13,0,*5F
1520870784.14,22824,7.56,72096.0,-3.29,-4.13,-4.13,0,*56
1520870785.34,22825,7.56,72104.3,-3.27,-4.13,-4.13,0,*59
1520870786.56,22826,7.56,72104.0,-3.29,-4.13,-4.13,0,*54
1520870787.78,22827,7.56,72098.3,-3.29,-4.13,-4.13,0,*55
1520870788.98,22828,7.56,72096.0,-3.27,-4.13,-4.13,0,*54
1520870790.2,22829,7.56,72096.3,-3.29,-4.13,-4.13,0,*5B
1520870791.42,22830,7.56,72094.3,-3.29,-4.09,-4.13,0,*58
1520870792.65,22831,7.56,72098.0,-3.29,-4.13,-4.13,0,*52
1520870793.87,22832,7.63,72098.5,-3.29,-4.13,-4.13,0,*51
1520870795.07,22833,7.56,72098.0,-3.27,-4.13,-4.13,0,*5E
1520870796.26,22834,7.56,72094.0,-3.27,-4.13,-4.13,0,*59
1520870797.49,22835,7.56,72094.0,-3.29,-4.13,-4.13,0,*56
1520870798.71,22836,7.56,72092.3,-3.29,-4.13,-4.13,0,*55
1520870799.94,22837,7.56,72094.3,-3.29,-4.13,-4.21,0,*55
1520870801.14,22838,7.56,72096.5,-3.27,-4.13,-4.21,0,*54
1520870802.36,22839,7.56,72098.5,-3.29,-4.13,-4.13,0,*5A
1520870803.59,22840,7.56,72094.8,-3.29,-4.13,-4.13,0,*54
1520870804.81,22841,7.56,72098.8,-3.29,-4.13,-4.13,0,*55
1520870806.0,22842,7.56,72096.5,-3.27,-4.13,-4.13,0,*58
1520870807.2,22843,7.56,72106.0,-3.27,-4.13,-4.13,0,*59
1520870808.4,22844,7.56,72104.8,-3.27,-4.13,-4.13,0,*5E
1520870809.62,22845,7.56,72108.3,-3.29,-4.13,-4.13,0,*51
1520870810.84,22846,7.56,72106.5,-3.29,-4.13,-4.13,0,*52
1520870812.04,22847,7.56,72106.5,-3.27,-4.13,-4.13,0,*5D
1520870813.24,22848,7.56,72110.0,-3.27,-4.13,-4.13,0,*52
1520870814.46,22849,7.56,72106.3,-3.29,-4.13,-4.13,0,*5D
1520870815.66,22850,7.56,72104.3,-3.27,-4.13,-4.13,0,*5B
1520870816.88,22851,7.56,72106.8,-3.29,-4.13,-4.13,0,*54
1520870818.1,22852,7.56,72102.8,-3.29,-4.13,-4.13,0,*57
1520870819.3,22853,7.56,72102.3,-3.27,-4.13,-4.13,0,*58
1520870820.52,22854,7.56,72102.0,-3.29,-4.13,-4.13,0,*51
1520870821.72,22855,7.63,72100.5,-3.27,-4.13,-4.13,0,*5E
1520870822.92,22856,7.56,72096.8,-3.27,-4.13,-4.21,0,*5C
1520870824.12,22857,7.56,72098.3,-3.27,-4.13,-4.13,0,*5C
1520870825.32,22858,7.56,72100.5,-3.27,-4.13,-4.13,0,*53
1520870826.51,22859,7.56,72096.8,-3.27,-4.13,-4.13,0,*52
1520870827.71,22860,7.63,72100.8,-3.27,-4.13,-4.13,0,*58
1520870828.93,22861,7.56,72100.5,-3.29,-4.13,-4.13,0,*57
1520870830.16,22862,7.56,72106.0,-3.29,-4.13,-4.13,0,*54
1520870831.38,22863,7.63,72104.0,-3.25,-4.09,-4.09,0,*59
1520870832.6,22864,7.56,72102.8,-3.29,-4.13,-4.13,0,*52
1520870833.79,22865,7.56,72102.5,-3.27,-4.13,-4.13,0,*5D
1520870834.99,22866,7.56,72100.8,-3.27,-4.13,-4.13,0,*5E
1520870836.19,22867,7.56,72096.3,-3.27,-4.13,-4.13,0,*5F
1520870837.39,22868,7.56,72094.8,-3.27,-4.21,-4.13,0,*51
1520870838.59,22869,7.56,72094.3,-3.27,-4.13,-4.13,0,*51
1520870839.79,22870,7.56,72100.0,-3.27,-4.13,-4.13,0,*59
1520870840.98,22871,7.56,72106.0,-3.27,-4.13,-4.13,0,*58
1520870842.18,22872,7.56,72110.5,-3.27,-4.13,-4.13,0,*5B
1520870843.41,22873,7.56,72110.3,-3.29,-4.21,-4.13,0,*55
1520870844.61,22874,7.56,72106.5,-3.27,-4.13,-4.13,0,*5D
1520870845.83,22875,7.56,72100.5,-3.25,-4.09,-4.09,0,*5E
1520870847.02,22876,7.56,72104.5,-3.27,-4.13,-4.13,0,*5F
1520870848.22,22877,7.56,72098.8,-3.27,-4.13,-4.13,0,*5E
1520870849.42,22878,7.56,72092.8,-3.27,-4.21,-4.13,0,*50
1520870850.65,22879,7.56,72100.0,-3.29,-4.13,-4.13,0,*5E
1520870851.87,22880,7.56,72092.3,-3.25,-4.09,-4.09,0,*54
1520870853.07,22881,7.56,72094.5,-3.27,-4.21,-4.13,0,*56
1520870854.27,22882,7.56,72100.0,-3.27,-4.13,-4.13,0,*54
1520870855.46,22883,7.56,72100.3,-3.27,-4.13,-4.13,0,*55
1520870856.67,22884,7.56,72100.3,-3.27,-4.21,-4.13,0,*53
1520870857.86,22885,7.56,72098.0,-3.27,-4.13,-4.13,0,*53
1520870859.06,22886,7.56,72102.3,-3.27,-4.13,-4.13,0,*50
1520870860.26,22887,7.56,72098.3,-3.27,-4.21,-4.13,0,*50
1520870861.46,22888,7.56,72090.5,-3.27,-4.13,-4.13,0,*5E
1520870862.66,22889,7.56,72092.3,-3.27,-4.13,-4.21,0,*5E
1520870863.86,22890,7.56,72096.3,-3.27,-4.13,-4.13,0,*57
1520870865.06,22891,7.56,72094.8,-3.27,-4.13,-4.13,0,*56
1520870866.25,22892,7.56,72088.8,-3.27,-4.13,-4.13,0,*55
1520870867.48,22893,7.56,72082.8,-3.29,-4.13,-4.13,0,*5A
1520870868.68,22894,7.56,72082.8,-3.27,-4.13,-4.21,0,*52
1520870869.9,22895,7.56,72084.3,-3.29,-4.13,-4.13,0,*5C
1520870871.1,22896,7.56,72084.0,-3.27,-4.13,-4.21,0,*50
1520870872.3,22897,7.56,72082.3,-3.27,-4.21,-4.13,0,*51
1520870873.5,22898,7.56,72082.0,-3.27,-4.13,-4.13,0,*5F
1520870874.73,22899,7.63,72092.5,-3.29,-4.13,-4.13,0,*50
1520870875.92,22900,7.56,72084.0,-3.27,-4.13,-4.13,0,*5F
1520870877.12,22901,7.56,72064.5,-3.27,-4.13,-4.13,0,*5E
1520870878.32,22902,7.56,72058.8,-3.27,-4.13,-4.21,0,*5C
1520870879.52,22903,7.56,72064.3,-3.27,-4.21,-4.13,0,*5D
1520870880.72,22904,7.56,72076.3,-3.27,-4.13,-4.13,0,*5B
1520870881.92,22905,7.56,72064.8,-3.27,-4.21,-4.13,0,*5B
1520870883.12,22906,7.56,72072.3,-3.27,-4.13,-4.13,0,*59
1520870884.34,22907,7.56,72072.8,-3.25,-4.09,-4.09,0,*5A
1520870885.56,22908,7.56,72076.0,-3.25,-4.09,-4.17,0,*5A
1520870886.75,22909,7.56,72072.3,-3.27,-4.13,-4.13,0,*56
1520870887.98,22910,7.56,72068.0,-3.29,-4.21,-4.13,0,*51
1520870889.21,22911,7.56,72076.3,-3.29,-4.13,-4.13,0,*51
1520870890.4,22912,7.56,72072.5,-3.27,-4.13,-4.13,0,*5C
1520870891.62,22913,7.56,72062.5,-3.25,-4.17,-4.09,0,*50
1520870892.83,22914,7.56,72062.3,-3.27,-4.21,-4.13,0,*5B
1520870894.03,22915,7.56,72054.5,-3.27,-4.13,-4.13,0,*5B
1520870895.23,22916,7.56,72056.3,-3.27,-4.21,-4.21,0,*58
1520870896.45,22917,7.56,72072.3,-3.25,-4.17,-4.17,0,*5B
1520870897.65,22918,7.56,72078.8,-3.27,-4.21,-4.13,0,*57
1520870898.87,22919,7.56,72074.8,-3.25,-4.09,-4.09,0,*55
1520870900.09,22920,7.56,72090.5,-3.25,-4.09,-4.09,0,*5F
1520870901.29,22921,7.56,72078.8,-3.27,-4.09,-4.09,0,*5C
1520870902.49,22922,7.56,72076.3,-3.27,-4.13,-4.13,0,*5F
1520870903.71,22923,7.56,72076.5,-3.25,-4.09,-4.09,0,*5C
1520870904.9,22924,7.56,72074.0,-3.27,-4.13,-4.13,0,*59
1520870906.12,22925,7.56,72076.5,-3.25,-4.09,-4.17,0,*55
1520870907.32,22926,7.56,72080.0,-3.27,-4.13,-4.13,0,*5B
1520870908.51,22927,7.56,72082.0,-3.27,-4.13,-4.13,0,*5A
1520870909.71,22928,7.56,72082.0,-3.27,-4.13,-4.13,0,*55